Tracking 19832 objects as of 24-Aug-2019
HD Live streaming from Space Station
objects crossing your sky now

COSMOS 2251 DEB

Track COSMOS 2251 DEB now!
10-day predictions


NORAD ID: 34141
Int'l Code: 1993-036LN
Perigee: 752.0 km
Apogee: 854.6 km
Inclination: 74.0 °
Period: 100.8 minutes
Semi major axis: 7174 km
RCS: 0.033 m2 (small)
Launch date: June 16, 1993
Source: Commonwealth of Independent States (former USSR) (CIS)
Launch site: PLESETSK MISSILE AND SPACE COMPLEX (PKMTR)

Note: This is SATELLITE DEBRIS
aabbcc
Your satellite tracking list
Your tracking list is empty




NASA's NSSDC Master Catalog

Two Line Element Set (TLE):
1 34141U 93036LN  19235.63313177 +.00000330 +00000-0 +13770-3 0  9992
2 34141 074.0176 290.4380 0071526 204.3226 319.1510 14.28680136546752
Source of the keplerian elements: AFSPC